Location: Bois de la Silve
(44.4667°N, 6.7833°E)
Time: 00:35:51
(UTC+00:00)

USA 238 DEB - Pass Details

Date: 25 October 2020
Orbit: 1001 x 1211 km, 63.5° (Epoch: 22 November)

Event Time Altitude Azimuth Distance (km) Brightness Sun altitude
Exits shadow 03:02:30 74° 114° (ESE) 1,077 3.6 -32.3°
Drops below altitude 10° 03:09:14 10° 40° (NE) 2,914 6.6 -31.1°
Sets 03:11:57 0° 39° (NE) 3,904 7.4 -30.7°
